Weather History for Fayetteville, AR

Change the Weather History Date:

Wednesday, December 26, 2012

  Actual Average Record
Temperature  
Mean Temperature 26 °F 36 °F  
Max Temperature 34 °F 46 °F 69 °F (2008)
Min Temperature 18 °F 25 °F -2 °F (1983)
Degree Days  
Heating Degree Days 39 29  
Month to date heating degree days 526 707  
Since 1 July heating degree days 1339 1536  
Moisture  
Dew Point 17 °F    
Average Humidity 66    
Maximum Humidity 81    
Minimum Humidity 51    
Precipitation  
Precipitation 0.00 in 0.10 in 0.70 in (2000)
Month to date precipitation 1.93 2.77  
Year to date precipitation 29.84 48.04  
Sea Level Pressure  
Sea Level Pressure 30.15 in    
Wind  
Wind Speed 8 mph (NNW)    
Max Wind Speed 21 mph    
Max Gust Speed 28 mph    
Visibility 10 miles    
Events      
T = Trace of Precipitation, MM = Missing Value Source: NWS Daily Summary

Daily Weather History Graph

Daily Weather History Graph

Search for Another Location

Airport:

Trip Planner

Search our weather history database for the weather conditions in past years. The results will help you decide how hot, cold, wet, or windy it might be!

Date:

Astronomy

Dec. 26, 2012 Rise Set
Actual Time 7:25 AM CST 5:09 PM CST
Civil Twilight 6:57 AM CST 5:37 PM CST
Nautical Twilight 6:25 AM CST 6:10 PM CST
Astronomical Twilight 5:53 AM CST 6:41 PM CST
Moon 4:02 PM CST (12/26) 5:50 AM CST (12/26)
Length of Visible Light 10h 40m
Length of Day
9h 43m
Waxing Gibbous, 97% of the Moon is Illuminated
Dec 26
Waxing Gibbous
Dec 28
Full
Jan 4
Last Quarter
Jan 11
New
Jan 18
First Quarter

Hourly Weather History & Observations

Time (CST) Temp. Windchill Dew Point Humidity Pressure Visibility Wind Dir Wind Speed Gust Speed Precip Events Conditions
12:53 AM 24.1 °F 11.5 °F 18.0 °F 77% 30.04 in 10.0 mi North 15.0 mph 25.3 mph N/A   Overcast
1:53 AM 24.1 °F 10.6 °F 17.1 °F 75% 30.06 in 10.0 mi NNW 17.3 mph 24.2 mph N/A   Overcast
2:53 AM 23.0 °F 9.6 °F 17.1 °F 78% 30.09 in 10.0 mi NNW 16.1 mph - N/A   Overcast
3:53 AM 21.9 °F 7.8 °F 16.0 °F 78% 30.08 in 10.0 mi NNW 17.3 mph - N/A   Overcast
4:53 AM 19.9 °F 6.2 °F 14.0 °F 78% 30.11 in 10.0 mi North 15.0 mph - N/A   Overcast
5:53 AM 19.0 °F 6.1 °F 12.9 °F 77% 30.12 in 10.0 mi NNW 12.7 mph - N/A   Overcast
6:53 AM 19.0 °F 9.0 °F 12.9 °F 77% 30.13 in 10.0 mi North 8.1 mph - N/A   Overcast
7:53 AM 19.9 °F 11.1 °F 14.0 °F 78% 30.15 in 10.0 mi North 6.9 mph - N/A   Overcast
8:53 AM 21.9 °F 13.4 °F 15.1 °F 75% 30.18 in 10.0 mi North 6.9 mph - N/A   Overcast
9:53 AM 24.1 °F 15.2 °F 16.0 °F 71% 30.21 in 10.0 mi NNW 8.1 mph - N/A   Overcast
10:53 AM 28.0 °F 20.8 °F 18.0 °F 66% 30.21 in 10.0 mi North 6.9 mph - N/A   Overcast
11:36 AM 30.2 °F 21.3 °F 17.6 °F 60% 30.15 in 10.0 mi North 10.4 mph - N/A   Scattered Clouds
11:53 AM 30.9 °F 23.5 °F 18.0 °F 59% 30.18 in 10.0 mi North 8.1 mph - N/A   Clear
12:53 PM 30.9 °F 23.5 °F 18.0 °F 59% 30.17 in 10.0 mi WNW 8.1 mph - N/A   Clear
1:53 PM 32.0 °F 24.8 °F 19.0 °F 59% 30.15 in 10.0 mi NNW 8.1 mph - N/A   Clear
2:53 PM 33.1 °F 28.7 °F 18.0 °F 54% 30.15 in 10.0 mi North 4.6 mph - N/A   Clear
3:53 PM 32.0 °F 26.4 °F 18.0 °F 56% 30.14 in 10.0 mi North 5.8 mph - N/A   Clear
4:53 PM 28.9 °F 21.1 °F 18.0 °F 64% 30.17 in 10.0 mi NNW 8.1 mph - N/A   Clear
5:53 PM 27.0 °F 21.6 °F 18.0 °F 69% 30.19 in 10.0 mi NNW 4.6 mph - N/A   Clear
6:53 PM 27.0 °F - 18.0 °F 69% 30.20 in 10.0 mi Calm Calm - N/A   Clear
7:53 PM 26.1 °F 21.9 °F 18.0 °F 71% 30.17 in 10.0 mi Variable 3.5 mph - N/A   Clear
8:53 PM 25.0 °F 20.7 °F 19.0 °F 78% 30.18 in 10.0 mi NE 3.5 mph - N/A   Clear
9:53 PM 24.1 °F - 18.0 °F 77% 30.18 in 10.0 mi Calm Calm - N/A   Clear
10:53 PM 23.0 °F - 18.0 °F 81% 30.17 in 10.0 mi Calm Calm - N/A   Clear
11:53 PM 23.0 °F - 18.0 °F 81% 30.14 in 10.0 mi Calm Calm - N/A   Clear